Vertical_Velocity
0 1 -1 1 1 -0 -0 1 2 2 2 1 0 0 2 1 1 -1 -0 -1 2 -0 -2 0 0 -2 2 1 -2 -2 1 -2 -1
-0 0 -0 -0 1 1 1 -1 -1 1 1 1 0 0 -0 -1 -0 1 3 -1 -3 1 0 -2 -1 0 -1 -2 1 -2 -5 -3 -2
-1 -0 -1 -2 1 -1 -1 0 -0 -1 -1 -0 -1 -2 -1 -1 -1 -0 -2 0 -1 -2 1 0 -2 2 -0 -1 2 1 -2 -1 -0
-0 -1 -1 -2 -1 -1 -1 -1 -1 -1 -2 -2 -0 1 0 -0 1 0 0 -3 2 -0 -2 -0 2 -2 -1 -2 -0 3 -1 -1 0
-1 -1 -2 -2 -2 -1 -0 1 0 -0 -2 0 1 1 -1 0 -1 -4 -2 2 -0 -2 -1 -1 -1 -1 -0 0 -2 -1 -1 1 -1
-0 -1 -1 -2 -1 -0 -0 -0 -1 -1 -2 -1 -1 -2 1 -4 -1 -1 0 1 2 -1 -2 -1 0 -1 0 -1 0 -1 -0 0 -1
-1 -1 -1 -2 -0 -2 -3 -0 -1 0 -1 -1 -3 -2 0 -1 -1 -1 -2 1 2 -3 2 -3 -1 1 0 1 -1 1 1 -1 1
0 2 1 -1 -0 -3 -3 -2 -1 -2 -2 -1 1 -0 -3 -0 -3 1 -2 1 0 -1 -2 -2 0 0 0 -1 -1 -1 1 1 0
2 1 -0 0 0 3 -1 -1 -2 -1 -0 -0 -0 1 -1 1 0 -2 -0 -2 1 -0 -1 0 -0 -2 -0 0 -1 -1 0 0 -0
-1 0 1 -1 -1 -0 -1 0 1 1 3 0 -0 -0 -1 1 2 -1 0 -1 0 -0 1 1 0 -1 -1 -0 -0 0 -0 -0 -1
0 0 2 -0 -1 0 -0 1 -1 -1 -1 1 1 1 -1 0 1 -2 -0 -2 -2 -1 -1 -1 -1 -0 -0 -1 -1 -1 -1 0 -1
1 -0 2 0 0 2 -2 -1 -1 1 0 1 -0 -0 1 -1 -0 -1 -1 -2 -2 -2 -1 -0 -1 -1 -2 -1 -1 0 1 -0 -1
2 3 5 1 0 1 1 -2 -1 -1 -0 -0 -0 -1 -1 -2 1 0 -1 -1 -0 -0 0 1 -0 -1 -2 -2 -1 -2 -2 -0 -1
1 2 4 0 1 1 -1 1 -1 -0 0 -1 -1 -2 -2 -2 -1 -0 0 2 1 1 -1 -1 -1 -1 -1 -1 -2 -1 -2 -1 -1
-1 4 1 1 0 1 3 2 -3 1 0 -1 -0 -0 -0 -1 -2 -1 -1 1 1 -1 0 1 -1 -0 -0 -0 -1 -2 -2 -2 -1
2 2 1 4 4 7 1 -0 2 0 1 -3 2 -0 -2 1 -2 0 0 -1 -1 -2 -2 -0 0 1 1 -1 -1 -2 -1 -1 -2
-0 3 2 3 2 5 2 2 2 2 2 -0 -2 -2 -1 -1 -1 -2 2 -1 1 -1 -1 1 1 1 -1 -1 -1 -0 0 -0 -1
5 1 0 3 1 2 3 2 6 6 1 3 -1 -2 1 3 2 -2 1 1 -0 2 -1 -1 -3 -1 1 0 -0 -1 -1 -1 -0
5 5 2 -1 2 2 6 1 -12 8 8 -2 4 2 -2 -2 -2 -1 1 1 -0 1 1 -0 -1 2 0 0 -2 -2 -1 -2 -1
5 5 6 0 3 2 8 -0 -6 -7 -0 -9 2 1 12 -4 -7 -3 -2 -0 -0 0 2 2 1 -2 -0 -1 -2 -2 -3 -1 -2
Height
3173 3172 3171 3171 3171 3170 3170 3171 3171 3172 3173 3173 3173 3172 3172 3172 3172 3172 3172 3172 3171 3171 3171 3171 3170 3170 3169 3169 3169 3169 3169 3169 3169
3174 3173 3172 3171 3171 3171 3171 3171 3171 3172 3172 3172 3172 3172 3172 3172 3172 3171 3171 3171 3170 3170 3170 3170 3170 3169 3168 3168 3168 3168 3169 3168 3168
3175 3174 3174 3173 3172 3172 3172 3172 3172 3173 3173 3173 3172 3172 3172 3172 3171 3171 3170 3170 3170 3169 3169 3168 3168 3168 3167 3167 3167 3167 3167 3167 3167
3176 3175 3175 3174 3174 3173 3173 3173 3173 3172 3172 3172 3172 3171 3171 3171 3170 3170 3169 3168 3168 3167 3167 3166 3166 3166 3165 3165 3165 3165 3165 3165 3165
3176 3176 3176 3175 3175 3174 3174 3173 3173 3173 3172 3172 3171 3171 3170 3169 3169 3169 3168 3167 3167 3166 3165 3165 3164 3163 3163 3162 3162 3162 3162 3162 3162
3175 3175 3175 3175 3175 3175 3174 3174 3173 3173 3172 3171 3171 3170 3169 3168 3168 3167 3166 3165 3165 3164 3163 3162 3162 3162 3160 3160 3160 3159 3159 3159 3159
3174 3174 3174 3174 3174 3173 3173 3173 3173 3172 3171 3170 3170 3169 3168 3167 3167 3166 3165 3165 3163 3162 3161 3160 3160 3159 3158 3158 3157 3157 3157 3156 3156
3172 3172 3171 3171 3171 3171 3171 3171 3171 3170 3170 3169 3168 3167 3167 3165 3165 3164 3163 3163 3162 3160 3159 3158 3157 3156 3156 3155 3155 3155 3154 3154 3153
3169 3169 3169 3169 3169 3168 3169 3168 3168 3168 3167 3167 3166 3165 3164 3163 3162 3162 3160 3160 3159 3158 3156 3155 3154 3153 3153 3153 3152 3152 3151 3151 3150
3166 3166 3166 3166 3166 3166 3165 3165 3164 3165 3165 3163 3163 3162 3161 3160 3159 3159 3158 3156 3155 3154 3153 3152 3151 3151 3150 3150 3149 3149 3148 3147 3146
3161 3162 3162 3162 3162 3162 3162 3162 3162 3162 3162 3161 3160 3159 3158 3157 3156 3155 3154 3153 3153 3152 3151 3150 3149 3148 3147 3147 3146 3145 3144 3143 3142
3156 3157 3157 3158 3158 3159 3158 3158 3158 3158 3158 3157 3156 3155 3154 3154 3153 3152 3151 3150 3150 3149 3148 3147 3146 3145 3144 3143 3142 3141 3140 3139 3138
3151 3152 3153 3153 3154 3155 3155 3155 3154 3154 3153 3152 3151 3150 3150 3150 3149 3148 3148 3147 3146 3145 3144 3143 3142 3142 3141 3140 3139 3138 3136 3135 3133
3146 3147 3148 3149 3150 3151 3151 3151 3150 3150 3149 3148 3147 3147 3146 3146 3145 3145 3144 3144 3143 3142 3141 3140 3139 3137 3137 3135 3134 3133 3131 3130 3128
3140 3142 3143 3144 3145 3146 3146 3146 3146 3145 3144 3143 3142 3142 3142 3142 3141 3140 3140 3140 3139 3138 3137 3136 3134 3133 3132 3131 3129 3127 3125 3123 3122
3134 3136 3138 3140 3140 3141 3140 3141 3141 3140 3139 3138 3138 3138 3138 3137 3137 3136 3135 3134 3134 3133 3132 3131 3130 3128 3127 3125 3123 3121 3119 3117 3114
3127 3129 3132 3133 3134 3134 3135 3135 3135 3135 3134 3134 3133 3132 3133 3133 3132 3131 3130 3130 3129 3128 3127 3126 3124 3123 3121 3119 3117 3115 3113 3110 3107
3120 3122 3124 3126 3127 3128 3129 3129 3129 3130 3129 3128 3128 3126 3127 3127 3126 3126 3125 3124 3123 3122 3121 3120 3118 3117 3115 3113 3110 3108 3106 3103 3099
3111 3114 3116 3118 3119 3121 3121 3121 3121 3122 3121 3121 3122 3121 3121 3120 3120 3120 3119 3117 3116 3114 3113 3113 3111 3109 3107 3104 3101 3099 3097 3094 3090
3102 3104 3106 3109 3110 3112 3113 3113 3115 3113 3114 3113 3114 3115 3114 3113 3113 3111 3112 3110 3108 3106 3105 3104 3102 3100 3097 3095 3092 3089 3086 3083 3080